When you browse on this site, cookies collect data to enhance your experience and personalize the content and advertising you see.
Visit our Privacy Policy to learn more. By continuing to use the site, you agree to this use of cookies and data.
  • In Österreich
  • Länderverzeichnis
  • Für 7 Tage
  • Wassertemperatur
  • Wetterkarte
  • News
  • Widgets
  • user-avatar
    Anmelden

    Stündliche Wetter Chyzhychi

    Heute, 20 August, Dienstag

    Zeit Temperatur Niederschläge Wind Luftdruck Luftfeuchtigkeit
    00:00 +21°C° 0 mm 1 m/S 736 mmHg 76%
    01:00 +20°C° 0 mm 1 m/S 736 mmHg 76%
    02:00 +20°C° 0 mm 1 m/S 736 mmHg 78%
    03:00 +20°C° 0 mm 1 m/S 736 mmHg 79%
    04:00 +19°C° 0 mm 1 m/S 736 mmHg 80%
    05:00 +19°C° 0 mm 1 m/S 736 mmHg 81%
    06:00 +20°C° 0 mm 1 m/S 737 mmHg 77%
    07:00 +22°C° 0 mm 1 m/S 737 mmHg 73%
    08:00 +23°C° 0 mm 1 m/S 738 mmHg 71%
    09:00 +25°C° 0 mm 1 m/S 738 mmHg 68%
    10:00 +27°C° 0 mm 1 m/S 738 mmHg 65%
    11:00 +28°C° 0 mm 1 m/S 738 mmHg 61%
    12:00 +29°C° 0 mm 1 m/S 738 mmHg 59%
    13:00 +30°C° 0 mm 1 m/S 738 mmHg 56%
    14:00 +31°C° 0 mm 1 m/S 738 mmHg 53%
    15:00 +30°C° 0 mm 1 m/S 738 mmHg 55%
    16:00 +30°C° 0 mm 1 m/S 738 mmHg 57%
    17:00 +30°C° 0 mm 1 m/S 737 mmHg 59%
    18:00 +28°C° 0 mm 2 m/S 737 mmHg 63%
    19:00 +26°C° 0 mm 2 m/S 737 mmHg 68%
    20:00 +25°C° 0 mm 2 m/S 737 mmHg 73%
    21:00 +24°C° 0 mm 2 m/S 737 mmHg 69%
    22:00 +23°C° 0 mm 2 m/S 737 mmHg 65%
    23:00 +21°C° 0 mm 3 m/S 737 mmHg 61%

    Morgen, 21 August, Mittwoch

    Zeit Temperatur Niederschläge Wind Luftdruck Luftfeuchtigkeit
    00:00 +21°C° 0 mm 3 m/S 737 mmHg 61%
    01:00 +20°C° 0 mm 3 m/S 737 mmHg 61%
    02:00 +20°C° 0 mm 3 m/S 737 mmHg 62%
    03:00 +19°C° 0 mm 3 m/S 736 mmHg 62%
    04:00 +19°C° 0 mm 3 m/S 736 mmHg 63%
    05:00 +18°C° 0 mm 2 m/S 736 mmHg 64%
    06:00 +20°C° 0 mm 3 m/S 736 mmHg 64%
    07:00 +21°C° 0 mm 3 m/S 737 mmHg 65%
    08:00 +22°C° 0 mm 3 m/S 737 mmHg 65%
    09:00 +25°C° 0 mm 2 m/S 737 mmHg 62%
    10:00 +27°C° 0 mm 2 m/S 737 mmHg 59%
    11:00 +30°C° 0 mm 2 m/S 738 mmHg 55%
    12:00 +29°C° 0.4 mm 3 m/S 738 mmHg 60%
    13:00 +29°C° 0.4 mm 5 m/S 738 mmHg 64%
    14:00 +29°C° 0.4 mm 6 m/S 738 mmHg 68%
    15:00 +27°C° 0.9 mm 6 m/S 738 mmHg 72%
    16:00 +26°C° 0.9 mm 6 m/S 738 mmHg 76%
    17:00 +24°C° 0.9 mm 6 m/S 738 mmHg 80%
    18:00 +22°C° 0.3 mm 6 m/S 739 mmHg 82%
    19:00 +21°C° 0.3 mm 5 m/S 739 mmHg 84%
    20:00 +19°C° 0.3 mm 5 m/S 739 mmHg 86%
    21:00 +19°C° 0.1 mm 4 m/S 740 mmHg 87%
    22:00 +18°C° 0.1 mm 3 m/S 740 mmHg 88%
    23:00 +17°C° 0.1 mm 3 m/S 740 mmHg 88%

    übermorgen, 22 August, Donnerstag

    Zeit Temperatur Niederschläge Wind Luftdruck Luftfeuchtigkeit
    00:00 +16°C° 0 mm 3 m/S 740 mmHg 89%
    01:00 +16°C° 0 mm 3 m/S 741 mmHg 90%
    02:00 +14°C° 0 mm 3 m/S 741 mmHg 91%
    03:00 +14°C° 0.1 mm 2 m/S 741 mmHg 93%
    04:00 +14°C° 0.1 mm 2 m/S 741 mmHg 94%
    05:00 +13°C° 0.1 mm 2 m/S 741 mmHg 96%
    06:00 +14°C° 0.1 mm 2 m/S 741 mmHg 94%
    07:00 +14°C° 0.1 mm 2 m/S 741 mmHg 92%
    08:00 +14°C° 0.1 mm 2 m/S 741 mmHg 90%
    09:00 +15°C° 0 mm 2 m/S 741 mmHg 88%
    10:00 +16°C° 0 mm 2 m/S 741 mmHg 86%
    11:00 +16°C° 0 mm 2 m/S 741 mmHg 84%
    12:00 +17°C° 0 mm 2 m/S 741 mmHg 82%
    13:00 +17°C° 0 mm 2 m/S 741 mmHg 80%
    14:00 +18°C° 0 mm 2 m/S 741 mmHg 78%
    15:00 +19°C° 0 mm 2 m/S 741 mmHg 76%
    16:00 +19°C° 0 mm 2 m/S 741 mmHg 74%
    17:00 +20°C° 0 mm 2 m/S 740 mmHg 73%
    18:00 +19°C° 0 mm 2 m/S 740 mmHg 77%
    19:00 +19°C° 0 mm 1 m/S 741 mmHg 82%
    20:00 +18°C° 0 mm 1 m/S 741 mmHg 86%
    21:00 +16°C° 0 mm 1 m/S 741 mmHg 88%
    22:00 +16°C° 0 mm 1 m/S 741 mmHg 89%
    23:00 +15°C° 0 mm 1 m/S 741 mmHg 91%

    23 August, Freitag

    Zeit Temperatur Niederschläge Wind Luftdruck Luftfeuchtigkeit
    00:00 +15°C° 0 mm 1 m/S 741 mmHg 92%
    01:00 +15°C° 0 mm 1 m/S 741 mmHg 92%
    02:00 +15°C° 0 mm 2 m/S 741 mmHg 93%
    03:00 +15°C° 0.2 mm 2 m/S 741 mmHg 94%
    04:00 +15°C° 0.2 mm 2 m/S 741 mmHg 94%
    05:00 +15°C° 0.2 mm 2 m/S 741 mmHg 95%
    06:00 +16°C° 0.2 mm 3 m/S 741 mmHg 92%
    07:00 +17°C° 0.2 mm 3 m/S 741 mmHg 88%
    08:00 +18°C° 0.2 mm 3 m/S 741 mmHg 85%
    09:00 +19°C° 0 mm 4 m/S 741 mmHg 79%
    10:00 +20°C° 0 mm 4 m/S 741 mmHg 72%
    11:00 +22°C° 0 mm 4 m/S 741 mmHg 66%
    12:00 +23°C° 0 mm 4 m/S 741 mmHg 63%
    13:00 +23°C° 0 mm 4 m/S 741 mmHg 60%
    14:00 +25°C° 0 mm 4 m/S 741 mmHg 57%
    15:00 +25°C° 0 mm 4 m/S 741 mmHg 58%
    16:00 +25°C° 0 mm 4 m/S 741 mmHg 59%
    17:00 +23°C° 0 mm 4 m/S 740 mmHg 60%
    18:00 +22°C° 0 mm 4 m/S 740 mmHg 64%
    19:00 +20°C° 0 mm 4 m/S 740 mmHg 68%
    20:00 +18°C° 0 mm 3 m/S 741 mmHg 72%
    21:00 +17°C° 0 mm 3 m/S 741 mmHg 72%
    22:00 +17°C° 0 mm 3 m/S 741 mmHg 73%
    23:00 +16°C° 0 mm 3 m/S 741 mmHg 73%

    24 August, Samstag

    Zeit Temperatur Niederschläge Wind Luftdruck Luftfeuchtigkeit
    00:00 +14°C° 0 mm 3 m/S 741 mmHg 74%
    01:00 +14°C° 0 mm 3 m/S 740 mmHg 76%
    02:00 +14°C° 0 mm 3 m/S 740 mmHg 77%
    03:00 +13°C° 0 mm 3 m/S 740 mmHg 79%
    04:00 +13°C° 0 mm 3 m/S 740 mmHg 80%
    05:00 +13°C° 0 mm 3 m/S 740 mmHg 81%
    06:00 +14°C° 0 mm 3 m/S 740 mmHg 78%
    07:00 +15°C° 0 mm 4 m/S 740 mmHg 76%
    08:00 +18°C° 0 mm 4 m/S 740 mmHg 73%
    09:00 +19°C° 0 mm 5 m/S 740 mmHg 70%
    10:00 +21°C° 0 mm 5 m/S 740 mmHg 66%
    11:00 +23°C° 0 mm 5 m/S 740 mmHg 63%
    12:00 +25°C° 0 mm 5 m/S 739 mmHg 61%
    13:00 +26°C° 0 mm 5 m/S 739 mmHg 58%
    14:00 +27°C° 0 mm 5 m/S 739 mmHg 56%
    15:00 +26°C° 0 mm 4 m/S 738 mmHg 56%
    16:00 +26°C° 0 mm 4 m/S 738 mmHg 57%
    17:00 +26°C° 0 mm 4 m/S 738 mmHg 58%
    18:00 +23°C° 0 mm 4 m/S 738 mmHg 61%
    19:00 +21°C° 0 mm 3 m/S 738 mmHg 64%
    20:00 +19°C° 0 mm 3 m/S 737 mmHg 66%
    21:00 +19°C° 0 mm 3 m/S 737 mmHg 68%
    22:00 +18°C° 0 mm 3 m/S 737 mmHg 69%
    23:00 +17°C° 0 mm 3 m/S 737 mmHg 70%

    25 August, Sonntag

    Zeit Temperatur Niederschläge Wind Luftdruck Luftfeuchtigkeit
    00:00 +17°C° 0 mm 3 m/S 737 mmHg 74%
    01:00 +17°C° 0 mm 3 m/S 737 mmHg 77%
    02:00 +16°C° 0 mm 3 m/S 737 mmHg 80%
    03:00 +16°C° 0 mm 3 m/S 737 mmHg 84%
    04:00 +16°C° 0 mm 2 m/S 736 mmHg 87%
    05:00 +15°C° 0 mm 2 m/S 736 mmHg 90%
    06:00 +17°C° 0 mm 2 m/S 737 mmHg 85%
    07:00 +18°C° 0 mm 3 m/S 737 mmHg 81%
    08:00 +20°C° 0 mm 3 m/S 737 mmHg 76%
    09:00 +22°C° 0 mm 3 m/S 737 mmHg 70%
    10:00 +25°C° 0 mm 3 m/S 737 mmHg 64%
    11:00 +27°C° 0 mm 3 m/S 737 mmHg 58%
    12:00 +28°C° 0 mm 3 m/S 737 mmHg 55%
    13:00 +29°C° 0 mm 3 m/S 737 mmHg 52%
    14:00 +30°C° 0 mm 3 m/S 737 mmHg 49%
    15:00 +29°C° 0 mm 3 m/S 737 mmHg 52%
    16:00 +29°C° 0 mm 3 m/S 737 mmHg 54%
    17:00 +29°C° 0 mm 3 m/S 737 mmHg 57%
    18:00 +27°C° 0 mm 3 m/S 737 mmHg 61%
    19:00 +25°C° 0 mm 3 m/S 737 mmHg 65%
    20:00 +22°C° 0 mm 3 m/S 737 mmHg 69%
    21:00 +21°C° 0 mm 3 m/S 737 mmHg 70%
    22:00 +20°C° 0 mm 3 m/S 737 mmHg 71%
    23:00 +19°C° 0 mm 3 m/S 737 mmHg 72%
    Mehr zeigen